Location: Laflin
(37.2770°N, 89.8884°W)
Time: 00:51:19
(UTC+00:00)

Daily predictions for brighter satellites

Satellite Brightness Start Highest point End
(mag) Time Altitude Azimuth Time Altitude Azimuth Time Altitude Azimuth
Spot 2 4.1 01:35:03 10° SSE 01:39:00 57° ENE 01:42:58 10° N
Cosmos 1570 Rocket 4.1 01:34:03 10° N 01:39:15 62° ENE 01:44:27 10° SSE
H-2A R/B 2.5 01:36:59 10° NNE 01:40:49 37° E 01:44:38 10° SSE
Cosmos 2369 4.4 01:36:04 10° SSE 01:40:58 31° ESE 01:45:53 10° NE
Cosmos 1814 Rocket 4.0 01:36:45 10° NNW 01:41:54 89° ENE 01:47:02 10° SSE
Cosmos 1486 Rocket 4.3 01:37:29 10° S 01:42:30 45° ESE 01:47:32 10° NNE
Cosmos 1328 Rocket 3.8 01:38:32 10° SSE 01:42:40 48° E 01:46:50 10° NNE
MetOp-A 3.4 01:44:41 10° SSE 01:48:43 66° ENE 01:52:34 10° N
Cosmos 1697 Rocket 2.7 01:43:43 10° S 01:49:19 69° ESE 01:54:57 10° NNE
Cosmos 2098 Rocket 4.3 01:49:28 10° NNW 01:52:03 26° W 01:54:30 10° SSW
Gbstr 26 Del rocket 4.5 01:44:51 10° NW 01:52:15 64° SW 01:58:23 10° SSE
Cosmos 405 3.8 01:50:40 10° NNE 01:53:44 30° ENE 01:56:36 11° SE
Cosmos 389 Rocket 4.4 01:52:40 10° NE 01:54:52 16° ENE 01:56:49 11° ESE
Cosmos 2360 4.2 01:50:16 10° SSW 01:55:54 73° ESE 02:01:35 10° NNE
CZ-4B R/B 2.0 01:54:55 10° NNE 01:57:47 31° E 02:00:35 10° SSE
ATLAS 2AS CENTAUR R/B 3.4 01:53:07 10° S 02:00:15 41° ESE 02:07:19 10° NE
Cosmos 1515 4.2 01:57:26 10° SSE 02:00:56 38° E 02:04:27 10° NNE
Cosmos 1151 Rocket 3.7 01:58:01 10° SSW 02:02:13 57° W 02:06:25 10° N
USA 186 3.0 02:00:47 10° SSW 02:02:57 28° W 02:05:05 10° NW
Cosmos 2297 Rocket 2.2 01:57:37 10° NNW 02:03:17 88° WSW 02:08:56 10° SSE
JB-3 4.4 02:00:15 10° NNE 02:04:25 74° E 02:08:32 10° S
NOSS 3-4 (A) 4.0 01:59:40 10° SW 02:05:14 59° NW 02:11:10 10° NNE
NOSS 3-4 (C) 4.0 01:59:41 10° SW 02:05:17 60° NW 02:11:15 10° NNE
OBJECT-B 3.1 02:03:49 10° SSW 02:06:03 20° W 02:08:18 10° NW
COBE Rocket 4.0 02:01:19 10° SSE 02:06:26 86° ENE 02:11:27 10° N
Cosmos 1340 2.9 02:06:57 10° SSE 02:10:30 45° E 02:14:06 10° NNE
CZ-4 R/B 4.2 02:08:20 10° SW 02:10:35 15° W 02:12:53 10° WNW
Cosmos 1503 Rocket 4.2 02:06:48 10° S 02:11:50 49° ESE 02:16:56 10° NNE
Resurs 1-3 3.7 02:09:38 10° S 02:14:00 81° WSW 02:18:25 10° NNW
Cosmos 1666 Rocket 3.9 02:09:41 10° NNW 02:14:05 69° W 02:18:28 10° S
SJ-6B 4.1 02:13:06 10° SSW 02:16:41 38° W 02:20:13 10° NNW
H-2A R/B 3.8 02:13:26 10° S 02:17:35 41° W 02:21:39 10° NNW
SJ 16-02 2.1 02:15:43 13° SSE 02:19:04 32° E 02:22:57 10° NE
SL-16 R/B 3.9 02:18:47 13° ESE 02:19:13 13° E 02:21:41 10° ENE
Cosmos 1315 Rocket 3.4 02:15:30 10° NNW 02:19:29 57° W 02:23:23 10° S
Cosmos 1072 Rocket 4.5 02:13:47 10° S 02:19:47 64° E 02:25:50 10° NNE
Cosmos 1633 Rocket 3.3 02:17:41 10° NNW 02:22:02 69° W 02:26:20 10° S
SPOT 1/Viking Rocket 3.8 02:22:07 17° SE 02:26:01 54° ENE 02:31:03 10° N
Cosmos 1743 2.9 02:24:31 10° N 02:28:11 49° E 02:30:10 24° SE
Cosmos 1470 Rocket 3.5 02:29:23 10° N 02:33:42 90° NNW 02:37:01 17° S
Meteor 1-27 Rocket 3.8 02:28:24 10° S 02:34:09 84° W 02:40:03 10° N
CENTAUR R/B 4.4 02:29:46 10° NW 02:37:32 38° WSW 02:45:37 10° S
OAO 3 Rocket 3.3 02:34:01 10° W 02:38:51 59° S 02:41:32 26° ESE
Cosmos 2278 3.8 02:33:59 10° S 02:39:26 52° ESE 02:44:55 10° NNE
Resurs 01 Rocket 1.6 02:39:24 19° S 02:42:33 82° WSW 02:46:58 10° NNW
Cosmos 2219 3.4 02:37:19 10° NNW 02:42:54 70° WSW 02:47:00 19° S
Cosmos 1515 Rocket 4.0 02:39:04 10° SSW 02:43:22 63° W 02:47:44 10° N
Ariane Rocket 2.9 02:40:48 22° SSE 02:44:09 76° ENE 02:49:15 10° N
SPOT 5 4.2 02:43:22 22° ESE 02:45:33 29° ENE 02:49:57 10° N
Terra 3.5 02:44:34 16° E 02:46:01 18° ENE 02:49:12 10° NNE
Cosmos 2034 Rocket 4.0 02:42:42 13° S 02:48:18 69° E 02:54:36 10° NNE
Cosmos 2082 3.7 02:43:58 10° NNW 02:49:34 66° ENE 02:52:31 28° SE
ISS -1.1 02:49:08 10° N 02:50:56 14° NNE 02:52:43 10° NE
Cosmos 921 Rocket 3.3 02:46:39 10° N 02:51:06 56° ENE 02:52:47 34° SE
Cosmos 2263 Rocket 3.1 02:46:52 10° N 02:51:53 33° ENE 02:54:16 24° ESE
Cosmos 1378 4.2 02:52:06 27° E 02:52:06 27° E 02:55:03 10° NNE
Meteor 1-11 Rocket 4.3 02:47:16 10° NNW 02:53:09 61° W 02:58:21 13° S
CARTOSAT-1 3.6 02:54:34 35° SE 02:56:11 61° ENE 03:00:27 10° N
Cosmos 2228 Rocket 3.2 02:58:45 35° SSE 03:00:26 57° E 03:04:55 10° NNE
Cosmos 1869 Rocket 3.9 02:57:45 10° N 03:02:06 48° E 03:03:11 39° ESE
Okean 1 3.2 03:02:18 31° S 03:04:09 87° W 03:08:11 10° N
Cosmos 2344 4.1 02:58:00 10° SW 03:05:34 59° NW 03:12:58 10° NNE
Cosmos 1536 3.9 03:02:40 10° NNW 03:06:28 41° W 03:08:52 20° SSW
NOSS 2-1 (C) 3.7 03:07:58 36° ENE 03:07:58 36° ENE 03:10:03 10° NE
RESURS DK-1 2.6 03:05:13 10° SSW 03:09:18 67° WNW 03:13:25 10° NNE
Cosmos 2227 Rocket 3.5 03:05:15 10° NW 03:10:20 35° WSW 03:14:17 15° SSW
ASTRO E2 4.5 03:09:29 10° WSW 03:11:34 19° SW 03:11:34 19° SW
SL-4 R/B 2.2 03:08:39 10° NW 03:13:07 63° SW 03:13:57 50° S
Cosmos 1980 Rocket 3.2 03:09:08 10° SW 03:14:30 46° WNW 03:19:57 10° N
USA 245 4.3 03:12:37 33° SSE 03:15:28 89° ENE 03:21:50 10° NNW
Cosmos 1777 Rocket 4.0 03:13:05 15° SSW 03:17:21 82° WNW 03:22:37 10° NNE
NOSS 2-1 (D) 3.4 03:18:11 47° NE 03:18:11 47° NE 03:20:32 10° NE
Spot 2 Rocket 3.6 03:16:25 43° SE 03:17:50 60° ENE 03:22:48 10° N
Cosmos 1809 Rocket 4.5 03:12:02 10° N 03:18:12 80° W 03:21:31 29° S
SPOT 3 Rocket 3.5 03:18:44 37° S 03:20:50 78° WSW 03:26:01 10° NNW
Cosmos 1707 Rocket 3.7 03:22:35 51° ESE 03:22:45 52° E 03:27:03 10° NNE
Cosmos 2322 Rocket 2.8 03:23:15 35° ESE 03:23:15 35° ESE 03:28:11 10° NE
ARIANE 5 R/B 3.6 03:23:46 33° E 03:24:04 33° ENE 03:28:05 10° N
Cosmos 773 Rocket 3.9 03:19:10 10° NNW 03:24:24 83° ENE 03:25:48 50° SSE
BREEZE-M DEB (TANK) 4.3 03:22:57 10° NNW 03:24:47 17° NNE 03:26:21 14° ENE
USA 215 4.2 03:21:32 10° ENE 03:25:34 27° E 03:25:34 27° E
Cosmos 389 Rocket 4.5 03:26:25 10° NW 03:29:13 23° W 03:30:25 19° WSW
Meteor 2-4 Rocket 3.7 03:28:29 41° S 03:30:35 75° E 03:36:16 10° NNE
Cosmos 44 Rocket 3.8 03:31:12 10° NNW 03:35:41 43° NE 03:36:16 41° ENE
Cosmos 1975 2.9 03:32:31 10° N 03:36:17 63° ENE 03:36:17 63° ENE
Helios 1A Rocket 3.2 03:43:33 54° WSW 03:43:45 55° W 03:47:42 10° NNW
Cosmos 2219 Rocket 4.4 03:49:49 10° ENE 03:49:49 10° ENE 03:49:50 10° ENE
Cosmos 158 Rocket 3.8 03:42:46 10° NNW 03:47:58 78° ENE 03:48:35 67° SE
Cosmos 1092 Rocket 3.9 03:42:39 10° N 03:48:50 80° W 03:50:43 47° S
Cosmos 1634 Rocket 4.0 03:48:31 39° SSW 03:50:58 80° W 03:57:12 10° N
ATLAS 2AS CENTAUR R/B 4.0 03:43:46 10° WSW 03:51:10 45° NW 03:58:26 10° NNE
USA 81 4.0 03:51:32 61° S 03:52:29 86° W 03:57:47 10° N
ERS-1 Rocket 3.0 03:52:28 61° SSW 03:53:13 73° WSW 03:58:15 10° NNW
Cosmos 2227 4.1 03:49:08 10° NNW 03:54:54 74° ENE 03:55:45 62° ESE
Cosmos 2142 Rocket 4.5 03:54:39 55° SSE 03:56:02 73° E 04:02:25 10° N
Cosmos 1733 Rocket 3.3 03:52:07 10° N 03:56:04 60° NE 03:56:04 60° NE
Meteor 2-15 Rocket 4.3 03:56:14 60° SSE 03:57:17 73° E 04:03:20 10° NNE
SJ 16-02 3.8 03:54:27 10° WSW 03:57:40 20° WNW 04:00:53 10° NNW
SL-16 R/B 2.3 04:00:33 41° SW 04:02:34 74° WNW 04:08:15 10° NNE
Cosmos 2237 4.0 04:04:12 72° SSE 04:04:41 78° ESE 04:10:25 10° NNE
Cosmos 1862 Rocket 3.7 04:05:57 72° NNW 04:05:57 72° NNW 04:10:02 10° N
Cosmos 1538 Rocket 3.8 04:00:20 10° NNW 04:05:34 78° ENE 04:05:40 78° E
Cosmos 1346 Rocket 3.9 04:11:56 39° WNW 04:11:56 39° WNW 04:15:38 10° N
Cosmos 2026 Rocket 4.3 04:07:34 10° NNW 04:13:38 59° W 04:15:15 45° SW
ATLAS 3B R/B 3.0 04:13:03 10° NNW 04:20:30 70° ENE 04:22:21 53° ESE
Cosmos 1937 Rocket 4.4 04:23:08 38° ENE 04:23:08 38° ENE 04:26:46 10° NNE
Terra 2.6 04:23:27 43° W 04:23:27 43° W 04:27:56 10° NNW
SPOT 5 4.3 04:22:34 30° WSW 04:23:27 32° W 04:28:06 10° NW
Cosmos 2360 Rocket 2.1 04:27:32 76° ENE 04:27:32 76° ENE 04:32:51 10° NNE
ISS -1.1 04:24:50 10° NW 04:25:58 20° NW 04:25:58 20° NW
Meteor 1-13 Rocket 4.1 04:34:10 83° WNW 04:34:10 83° WNW 04:39:44 10° N
Cosmos 2263 Rocket 3.4 04:30:53 10° NW 04:35:40 30° WSW 04:35:57 30° WSW
Cosmos 990 Rocket 4.5 04:37:51 53° W 04:38:15 54° WNW 04:43:24 10° N
Okean 1-7 4.2 04:44:36 41° N 04:44:36 41° N 04:47:29 10° N
Cosmos 1680 Rocket 4.0 04:40:03 10° N 04:44:38 52° NE 04:44:38 52° NE
Cosmos 2266 Rocket 3.9 04:43:27 10° N 04:49:37 78° ENE 04:49:37 78° ENE
Cosmos 1898 Rocket 3.9 04:52:43 61° NW 04:52:43 61° NW 04:57:46 10° N
Iridium 4 Rocket 4.0 04:49:14 10° N 04:52:48 52° NNE 04:52:48 52° NNE
Cosmos 1818 4.3 04:49:31 10° NNW 04:54:35 44° NE 04:54:35 44° NE
Meteor 1-12 Rocket 4.3 04:54:45 10° NNW 05:00:19 76° NW 05:00:19 76° NW
ATLAS CENTAUR R/B 3.1 04:58:05 10° NNW 05:01:48 33° NNE 05:01:48 33° NNE
Cosmos 2322 Rocket 3.8 05:04:59 23° W 05:07:09 29° WNW 05:12:02 10° N
USA 215 3.4 05:03:53 10° NE 05:10:23 68° NW 05:12:52 40° WSW
Cosmos 2322 4.1 05:13:04 56° NE 05:13:04 56° NE 05:17:36 10° NNE
Cosmos 2333 Rocket 2.4 05:13:10 67° N 05:13:10 67° N 05:18:10 10° NNE
ADEOS Rocket 3.7 05:13:15 38° ENE 05:13:15 38° ENE 05:18:34 10° N
Cosmos 1844 Rocket 3.0 05:09:55 10° NNW 05:14:32 60° NW 05:14:32 60° NW
Cosmos 2219 Rocket 2.5 05:31:30 61° NNW 05:31:30 61° NNW 05:36:15 10° NNE
Cosmos 1844 4.4 05:34:27 10° NNW 05:38:56 47° WNW 05:38:56 47° WNW
Cosmos 1553 Rocket 4.2 05:42:09 60° ENE 05:42:09 60° ENE 05:47:34 10° NNE
USA 267 4.3 05:38:54 21° E 05:42:45 41° NNE 05:48:47 10° NNW
ALOS 2 4.3 05:51:33 30° NNW 05:51:33 30° NNW 05:53:52 10° NNW
NOSS 0 Rocket 4.3 05:56:55 56° ENE 05:56:55 56° ENE 06:02:07 10° NNE
Cosmos 2237 Rocket 3.2 06:02:09 39° ENE 06:02:09 39° ENE 06:06:09 10° NE
COSMOS 2428 3.3 06:05:46 52° NW 06:05:46 52° NW 06:10:50 10° NNE
ATLAS 3B R/B 4.3 06:05:01 10° WNW 06:09:35 23° W 06:09:35 23° W
Resurs 1-4 Rocket 4.5 06:08:52 10° ENE 06:10:14 12° E 06:10:14 12° E
CZ-4C R/B 3.1 06:05:22 10° NNW 06:13:00 78° ENE 06:14:45 59° SE
NOSS 3-1 (A) 4.3 06:08:00 10° NNW 06:15:46 70° NE 06:18:26 48° ESE
NOSS 3-1 (C) 4.1 06:15:01 10° NW 06:22:53 70° WSW 06:23:27 68° SW
Cosmos 1745 Rocket 4.0 06:17:43 10° N 06:23:37 72° NE 06:23:37 72° NE
Cosmos 2278 Rocket 2.5 06:30:50 10° NNW 06:36:04 63° NE 06:36:04 63° NE
Cosmos 371 Rocket 4.3 06:41:23 43° NNW 06:41:23 43° NNW 06:44:54 10° N
ATLAS CENTAUR R/B 4.2 06:37:18 10° WNW 06:37:47 12° WNW 06:37:47 12° WNW
Lacrosse 5 3.0 06:43:42 38° ENE 06:43:42 38° ENE 06:46:57 10° NE
Cosmos 883 Rocket 4.4 06:42:27 81° ENE 06:42:27 81° ENE 06:48:40 10° N
USA 32 4.5 06:44:30 60° NNE 06:44:30 60° NNE 06:48:50 10° N
ATLAS 5 CENTAUR R/B 2.9 06:37:23 10° NW 06:45:39 63° N 06:45:39 63° N
SL-16 R/B 3.2 06:49:47 37° E 06:49:47 37° E 06:54:24 10° NE
Cosmos 1980 4.1 06:53:24 55° NW 06:53:24 55° NW 06:58:35 10° NNE
SME Rocket 4.5 06:58:11 35° ENE 06:58:11 35° ENE 07:02:09 10° N
ADEOS Rocket 4.4 07:00:11 23° WNW 07:00:11 23° WNW 07:03:34 10° NW
Meteor 2-10 Rocket 3.8 06:56:01 10° N 07:01:19 68° ENE 07:01:19 68° ENE
SL-16 R/B 4.0 07:01:09 18° ESE 07:04:42 31° ENE 07:10:03 10° N
MOZ.5/SAFIR/RUBIN 5/SL-8 4.3 07:09:27 57° NNE 07:09:27 57° NNE 07:13:28 10° N
Cosmos 1455 Rocket 4.0 07:07:25 10° N 07:10:49 47° NNE 07:10:49 47° NNE
EO 1 Delta rocket 4.2 07:08:58 10° N 07:13:11 65° NNW 07:13:11 65° NNW
Meteor 1-24 Rocket 3.8 07:14:11 63° E 07:14:12 63° E 07:19:37 10° NNE
Cosmos 2315 Rocket 4.1 07:17:55 61° W 07:18:08 61° W 07:24:28 10° N
Cosmos 1709 Rocket 3.9 07:12:09 10° NNW 07:18:05 66° W 07:18:05 66° W
COSMOS 2455 3.5 07:18:09 43° ESE 07:18:24 43° ESE 07:24:03 10° NE
Cosmos 1975 Rocket 4.0 07:25:12 45° NNW 07:25:12 45° NNW 07:28:27 10° N
USA 267 3.3 07:26:12 56° WSW 07:26:12 56° WSW 07:32:00 10° NW
CZ-2D R/B 2.3 07:20:46 10° NNE 07:26:04 62° ESE 07:26:09 62° ESE
Cosmos 1025 Rocket 3.9 07:27:37 47° N 07:27:37 47° N 07:30:46 10° N
Lacrosse 5 rocket 2.5 07:36:40 39° NNE 07:36:40 39° NNE 07:39:24 10° NE
USA 229 DEB 4.2 07:32:43 10° NW 07:39:55 48° WSW 07:40:07 48° WSW
USA 229 4.1 07:32:49 10° NW 07:40:01 49° WSW 07:40:15 49° WSW
Meteor 2-5 Rocket 3.7 07:40:07 64° W 07:40:21 65° W 07:46:01 10° N
Cosmos 2237 Rocket 3.7 07:43:57 22° WNW 07:45:00 23° WNW 07:49:28 10° N
UNK 4.3 07:48:50 46° ESE 07:49:42 53° ENE 07:54:11 10° N
CZ-4 R/B 3.8 07:45:33 10° N 07:49:56 71° NW 07:49:56 71° NW
Resurs 1-4 Rocket 2.0 07:45:42 10° N 07:50:58 74° WNW 07:51:19 70° WSW
NOSS 3-3 (A) 4.3 07:52:29 39° SE 07:53:27 43° ESE 07:59:08 10° NE
NOSS 3-3 (C) 4.4 07:52:35 39° SE 07:53:34 42° ESE 07:59:13 10° NE
Nadezhda 1 Rocket 4.1 07:53:45 45° SSE 07:55:45 71° E 08:02:02 10° NNE
Cosmos 1544 Rocket 3.7 07:53:58 10° N 07:57:54 68° NW 07:57:54 68° NW
CZ-4C R/B 4.3 07:55:10 10° WNW 07:59:52 23° W 07:59:52 23° W
IDEFIX/ARIANE 42P 2.9 07:57:44 10° NNE 08:02:57 60° E 08:04:17 45° SSE
Cosmos 1943 Rocket 2.1 07:57:39 10° NNW 08:03:22 88° WSW 08:05:08 46° SSE
ADEOS II 2.1 07:59:02 10° NNE 08:04:18 76° ESE 08:05:23 56° S
Meteor 1-28 Rocket 4.0 08:06:01 43° E 08:06:29 45° ENE 08:10:03 10° N
MOS 1 Rocket 3.0 08:10:22 69° SE 08:10:50 80° ENE 08:15:08 10° N
Cosmos 2297 3.7 08:05:04 10° NNW 08:10:51 83° ENE 08:13:59 28° SSE
IRS-1D 4.4 08:08:58 10° NNE 08:14:02 43° E 08:16:22 28° SSE
Cosmos 2278 Rocket 4.2 08:16:52 10° WNW 08:17:53 12° WNW 08:17:53 12° WNW
Lacrosse 5 3.6 08:22:52 18° WNW 08:25:14 24° NW 08:29:24 10° NNE
NPP 4.2 08:21:20 10° N 08:26:24 43° WNW 08:27:35 37° WSW
Cosmos 1455 3.3 08:25:09 10° NNW 08:27:34 31° NW 08:27:34 31° NW
SL-16 R/B 3.4 08:31:39 24° W 08:33:21 28° WNW 08:38:11 10° N
Cosmos 2369 Rocket 2.6 08:28:01 10° NNW 08:33:35 61° ENE 08:39:05 10° SE
Cosmos 2154 Rocket 4.0 08:27:27 10° NNW 08:33:44 67° W 08:36:42 33° SSW
Cosmos 1271 Rocket 2.6 08:34:05 10° NNW 08:37:54 64° W 08:38:05 62° WSW
Meteor 1-21 Rocket 4.1 08:35:30 34° S 08:38:05 88° E 08:43:41 10° N
FALCON 9 R/B 4.3 08:14:31 10° WNW 08:41:33 47° SW 08:49:01 10° SSE
Cosmos 2228 2.9 08:39:54 10° N 08:44:16 81° W 08:45:54 37° S
BREEZE-M DEB (TANK) 3.1 08:42:54 33° WSW 08:45:06 74° NW 08:47:51 10° NE
SL-16 R/B 3.0 08:46:14 32° SW 08:48:05 39° W 08:53:52 10° NNW
Cosmos 1603 3.6 08:53:55 31° SSW 08:56:44 78° WNW 09:02:25 10° NNE
Cosmos 407 Rocket 4.1 08:52:42 10° N 08:57:57 58° ENE 09:03:04 10° SSE
Cosmos 1371 Rocket 4.2 08:55:16 23° S 08:58:29 66° ESE 09:03:38 10° NNE
Cosmos 2058 Rocket 4.3 08:56:56 10° N 09:01:04 40° E 09:05:09 10° SSE
MOS 1-B Rocket 4.3 08:58:26 10° SSE 09:03:58 63° ENE 09:09:37 10° N
COSMOS 2455 4.0 09:01:17 19° W 09:04:26 29° NW 09:09:39 10° N
Cosmos 1140 Rocket 3.7 09:00:07 10° NNW 09:05:23 73° ENE 09:10:35 10° SSE
CZ-2D R/B 3.9 09:02:24 10° NNW 09:05:31 16° WNW 09:07:28 13° W
GPS 2-04 Rocket1 2.6 09:05:26 41° SSW 09:06:04 48° SSE 09:09:28 10° E
SeaSat 1 4.3 09:03:45 10° NE 09:07:47 25° ESE 09:11:47 10° SSE
DNEPR-1 R/B 3.9 09:06:04 30° WSW 09:07:49 50° NW 09:12:13 10° NNE
Cosmos 1328 3.9 09:06:30 33° SW 09:07:58 55° W 09:11:54 10° N
Helios 1B rocket 2.3 09:10:29 10° NNE 09:14:34 89° WNW 09:17:16 20° SSW
Lacrosse 5 rocket 3.9 09:14:09 10° NW 09:15:19 11° NNW 09:16:30 10° N
Cosmos 1241 Rocket 4.4 09:12:17 21° SSW 09:16:37 90° SW 09:22:52 10° NNE
Cosmos 2218 Rocket 4.0 09:12:29 10° N 09:18:46 87° E 09:25:07 10° S
Cosmos 1825 3.7 09:17:27 10° SSE 09:20:48 33° E 09:24:11 10° NNE
Cosmos 1606 Rocket 3.9 09:17:12 10° NNW 09:21:24 45° W 09:24:16 18° SSW
Cosmos 1023 Rocket 4.4 09:17:51 10° NNW 09:23:07 74° WSW 09:28:19 10° S
CZ-3 R/B 4.3 08:30:01 10° WSW 09:23:46 66° S 09:35:59 10° ESE
OAO 2 Rocket 3.3 09:21:48 21° WSW 09:25:04 61° S 09:29:56 10° E
Cosmos 1943 4.0 09:23:25 19° WSW 09:26:57 38° WNW 09:32:15 10° N
Helios 1A 4.4 09:28:06 19° WSW 09:28:50 19° W 09:31:55 10° NW
Cosmos 2181 Rocket 4.1 09:25:17 14° SSW 09:30:32 58° W 09:36:37 10° N
Cosmos 1959 Rocket 4.4 09:25:16 10° N 09:31:30 77° W 09:37:38 10° S
Cosmos 1624 Rocket 4.1 09:27:33 17° SSW 09:31:39 65° WNW 09:36:55 10° NNE
Meteor 1-11 4.3 09:26:55 13° SSW 09:32:13 71° W 09:38:00 10° N
SEDSat Delta rocket 4.4 09:28:00 17° WSW 09:32:58 49° S 09:39:24 10° E
Lacrosse 4 Rocket 1.6 09:31:42 14° SSW 09:35:24 70° ESE 09:39:37 10° NNE
ARIANE 5 R/B 2.7 09:31:09 10° NNE 09:36:11 70° ESE 09:41:08 10° S
Cosmos 2098 4.2 09:33:27 10° N 09:36:26 77° E 09:39:32 10° S
IRS-1C 4.2 09:31:08 10° NNE 09:36:30 85° ESE 09:41:49 10° SSW
Cosmos 1408 2.8 09:35:11 17° SSW 09:37:50 52° W 09:41:24 10° N
ATLAS 3B CENTAUR R/B 3.7 09:38:10 10° SSE 09:39:40 12° SE 09:41:24 10° SE
Cosmos 1892 2.8 09:37:51 14° SSW 09:41:01 58° W 09:44:45 10° N
Cosmos 864 Rocket 4.5 09:34:59 10° NNW 09:41:04 64° W 09:47:05 10° S
IDEFIX/ARIANE 42P 4.4 09:38:48 10° NNW 09:41:58 16° WNW 09:45:05 10° W
ADEOS II 4.1 09:41:00 10° NW 09:43:16 13° WNW 09:45:33 10° W
Cosmos 2056 Rocket 3.8 09:39:27 15° SW 09:43:36 50° WNW 09:48:43 10° N
Okean 1-7 Rocket 3.5 09:39:38 10° S 09:44:02 81° W 09:48:28 10° N
Cosmos 1484 Rocket 4.2 09:42:31 10° NNE 09:46:09 37° E 09:49:48 10° SSE
FENGYUN 3A 3.8 09:42:24 10° N 09:47:43 61° WNW 09:53:00 10° SSW
ALOS 2.3 09:45:43 10° N 09:50:20 63° WNW 09:54:55 10° SSW
Cosmos 1602 Rocket 3.8 09:53:32 10° S 09:57:59 77° E 10:02:26 10° N
Cosmos 1190 Rocket 4.2 09:55:40 10° NNW 10:00:49 54° WSW 10:05:58 10° S
ATLAS 2A CENTAUR R/B 3.9 09:53:16 10° WSW 10:07:49 43° S 10:13:40 10° ESE
CZ-2C R/B 3.0 10:04:26 10° N 10:09:14 44° WNW 10:13:54 10° SW
YAOGAN 6 4.1 10:06:30 10° NNE 10:09:52 37° E 10:13:16 10° SSE
Meteor 1-29 3.4 10:08:34 10° N 10:11:38 40° WNW 10:14:41 10° SW
PAYLOAD A 4.5 10:07:38 10° N 10:12:04 40° WNW 10:16:36 10° SW
Spot 4 Rocket 4.2 10:08:03 10° NNE 10:13:12 79° ESE 10:18:20 10° S
